SWR93 SBGR-LSZH

Flight info

Callsign SWR93
Flight time N/A
Altitude 37000
Route VUMEV UZ14 NITLU UZ16 EVPAD DCT ENRUV UL206 KODOS DCT 05N024W 10N021W DCT TURUP UA302 ANITI UR975 ARDAR UA854 BRENA UM986 TRB UG26 CHE UA29 SADAF DCT CDP Z238 CHELY N853 LUMAS DCT SOSUR DCT SECON DCT ODIXU DCT MAXIR DCT LUSOL DCT BODRU DCT OKTET DCT IRMAR DCT KINES DCT VANAS DCT MOBLO DCT LAMUR DCT GUDAX Z57 DOPIL
Aircraft B77W/H-SDE1E2E3FGHIJ2J3J4J5M1RWXY/LB1D1

Departure

Time N/A
Airport São Paulo/Guarulhos–Governor André Franco Montoro International Airport (SBGR)

Arrival

Time 2026-04-26 07:47
Airport Zürich Airport (LSZH)
Time Latitude Longitude Altitude Speed Heading
2026-04-26 02:08 10.09535 -20.91459 32934 ft 500 kts 40°
2026-04-26 02:09 10.14698 -20.86724 32937 ft 500 kts 40°
2026-04-26 02:09 10.19845 -20.82047 32933 ft 500 kts 40°
2026-04-26 02:10 10.25039 -20.77344 32934 ft 500 kts 40°
2026-04-26 02:10 10.30230 -20.72645 32929 ft 500 kts 40°
2026-04-26 02:11 10.35429 -20.67934 32928 ft 500 kts 40°
2026-04-26 02:11 10.40625 -20.63222 32928 ft 501 kts 40°
2026-04-26 02:12 10.45820 -20.58508 32929 ft 501 kts 40°
2026-04-26 02:12 10.51028 -20.53780 32931 ft 501 kts 40°
2026-04-26 02:13 10.56193 -20.49089 32929 ft 501 kts 39°
2026-04-26 02:13 10.61393 -20.44365 32928 ft 501 kts 39°
2026-04-26 02:14 10.66595 -20.39636 32924 ft 501 kts 39°
2026-04-26 02:14 10.71766 -20.34933 32919 ft 501 kts 39°
2026-04-26 02:15 10.76969 -20.30198 32927 ft 501 kts 39°
2026-04-26 02:15 10.82141 -20.25490 32921 ft 501 kts 39°
2026-04-26 02:16 10.87338 -20.20756 32924 ft 502 kts 39°
2026-04-26 02:16 10.92543 -20.16014 32923 ft 502 kts 39°
2026-04-26 02:17 10.97744 -20.11272 32924 ft 502 kts 39°
2026-04-26 02:17 11.02953 -20.06521 32924 ft 502 kts 39°
2026-04-26 02:18 11.08122 -20.01803 32922 ft 502 kts 39°
2026-04-26 02:18 11.13322 -19.97055 32919 ft 502 kts 39°
2026-04-26 02:19 11.18530 -19.92298 32916 ft 502 kts 39°
2026-04-26 02:19 11.23739 -19.87537 32919 ft 502 kts 39°
2026-04-26 02:20 11.28911 -19.82807 32917 ft 502 kts 39°
2026-04-26 02:20 11.34120 -19.78040 32917 ft 503 kts 39°
2026-04-26 02:21 11.39328 -19.73272 32915 ft 503 kts 39°
2026-04-26 02:21 11.44529 -19.68509 32919 ft 503 kts 39°
2026-04-26 02:22 11.50046 -19.64230 32917 ft 499 kts 30°
2026-04-26 02:22 11.55908 -19.60423 32915 ft 499 kts 30°
2026-04-26 02:23 11.61782 -19.56624 32920 ft 500 kts 30°
2026-04-26 02:23 11.67639 -19.52789 32918 ft 500 kts 30°
2026-04-26 02:24 11.73481 -19.48937 32900 ft 501 kts 30°
2026-04-26 02:24 11.79294 -19.45097 32902 ft 501 kts 30°
2026-04-26 02:25 11.85154 -19.41227 32900 ft 501 kts 30°
2026-04-26 02:25 11.91015 -19.37356 32901 ft 501 kts 30°
2026-04-26 02:26 11.96879 -19.33481 32915 ft 501 kts 30°
2026-04-26 02:26 12.02715 -19.29623 32915 ft 502 kts 30°
2026-04-26 02:27 12.08586 -19.25740 32905 ft 502 kts 30°
2026-04-26 02:27 12.14456 -19.21855 32898 ft 502 kts 30°
2026-04-26 02:28 12.20322 -19.17970 32897 ft 503 kts 30°
2026-04-26 02:28 12.26170 -19.14096 32899 ft 503 kts 30°
2026-04-26 02:29 12.32037 -19.10207 32902 ft 503 kts 30°
2026-04-26 02:29 12.37932 -19.06297 32902 ft 504 kts 30°
2026-04-26 02:30 12.43815 -19.02393 32903 ft 504 kts 30°
2026-04-26 02:30 12.48713 -18.99141 32901 ft 504 kts 30°
2026-04-26 02:31 12.55553 -18.94596 32897 ft 504 kts 30°
2026-04-26 02:31 12.60485 -18.91318 32896 ft 504 kts 30°
2026-04-26 02:32 12.66337 -18.87427 32901 ft 505 kts 30°
2026-04-26 02:32 12.72262 -18.83485 32898 ft 505 kts 30°
2026-04-26 02:33 12.78112 -18.79590 32893 ft 505 kts 30°
2026-04-26 02:33 12.84011 -18.75660 32894 ft 505 kts 30°
2026-04-26 02:34 12.89913 -18.71726 32893 ft 505 kts 30°
2026-04-26 02:34 12.95815 -18.67790 32893 ft 506 kts 30°
2026-04-26 02:35 13.01688 -18.63871 32892 ft 506 kts 30°
2026-04-26 02:35 13.07592 -18.59928 32890 ft 506 kts 30°
2026-04-26 02:36 13.13508 -18.55976 32893 ft 506 kts 30°
2026-04-26 02:36 13.19412 -18.52029 32892 ft 507 kts 30°
2026-04-26 02:37 13.25326 -18.48073 32893 ft 507 kts 30°
2026-04-26 02:37 13.31198 -18.44143 32891 ft 507 kts 30°
2026-04-26 02:38 13.37115 -18.40181 32891 ft 507 kts 30°
2026-04-26 02:38 13.43041 -18.36211 32889 ft 507 kts 30°
2026-04-26 02:39 13.48947 -18.32251 32886 ft 507 kts 30°
2026-04-26 02:39 13.54867 -18.28279 32888 ft 508 kts 30°
2026-04-26 02:40 13.60786 -18.24304 32890 ft 508 kts 30°
2026-04-26 02:40 13.66668 -18.20353 32883 ft 508 kts 30°
2026-04-26 02:41 13.72589 -18.16372 32884 ft 508 kts 30°
2026-04-26 02:41 13.78516 -18.12385 32884 ft 509 kts 30°
2026-04-26 02:42 13.84445 -18.08394 32879 ft 509 kts 30°
2026-04-26 02:42 13.90352 -18.04415 32883 ft 509 kts 30°
2026-04-26 02:43 13.99242 -17.98424 32879 ft 509 kts 29°
2026-04-26 02:43 14.05174 -17.94427 32881 ft 509 kts 29°
2026-04-26 02:44 14.11117 -17.90420 32883 ft 510 kts 29°
2026-04-26 02:44 14.17020 -17.86436 32875 ft 510 kts 29°
2026-04-26 02:45 14.22947 -17.82433 32876 ft 510 kts 29°
2026-04-26 02:45 14.28888 -17.78417 32878 ft 510 kts 29°
2026-04-26 02:46 14.34827 -17.74401 32874 ft 510 kts 29°
2026-04-26 02:46 14.40773 -17.70377 32874 ft 511 kts 29°
2026-04-26 02:47 14.46720 -17.66350 32882 ft 511 kts 29°
2026-04-26 02:47 14.52631 -17.62345 32879 ft 511 kts 29°
2026-04-26 02:48 14.58583 -17.58309 32878 ft 511 kts 29°
2026-04-26 02:48 14.64528 -17.54274 32886 ft 512 kts 29°
2026-04-26 02:49 14.70482 -17.50231 32882 ft 512 kts 29°
2026-04-26 02:49 14.76393 -17.46106 32888 ft 513 kts 32°
2026-04-26 02:50 14.82091 -17.41710 32882 ft 514 kts 33°
2026-04-26 02:50 14.87809 -17.37219 32887 ft 515 kts 33°
2026-04-26 02:51 14.93529 -17.32750 32880 ft 515 kts 33°
2026-04-26 02:51 14.99264 -17.28292 32883 ft 515 kts 33°
2026-04-26 02:52 15.04960 -17.23870 32876 ft 515 kts 33°
2026-04-26 02:52 15.10708 -17.19402 32880 ft 516 kts 33°
2026-04-26 02:53 15.16459 -17.14928 32882 ft 516 kts 33°
2026-04-26 02:53 15.22191 -17.10464 32881 ft 516 kts 33°
2026-04-26 02:54 15.27904 -17.06013 32884 ft 516 kts 32°
2026-04-26 02:54 15.33647 -17.01534 32883 ft 517 kts 32°
2026-04-26 02:55 15.39393 -16.97050 32869 ft 517 kts 32°
2026-04-26 02:55 15.45149 -16.92556 32868 ft 517 kts 32°
2026-04-26 02:56 15.50902 -16.88060 32870 ft 517 kts 32°
2026-04-26 02:56 15.56617 -16.83591 32869 ft 517 kts 32°
2026-04-26 02:57 15.62362 -16.79095 32870 ft 518 kts 32°
2026-04-26 02:57 15.68132 -16.74577 32869 ft 518 kts 32°
2026-04-26 02:58 15.73856 -16.70090 32869 ft 518 kts 32°
2026-04-26 02:58 15.79630 -16.65562 32868 ft 518 kts 32°
2026-04-26 02:59 15.85397 -16.61036 32870 ft 519 kts 32°
2026-04-26 02:59 15.91145 -16.56521 32865 ft 519 kts 32°
2026-04-26 03:00 15.96869 -16.52021 32864 ft 519 kts 32°
2026-04-26 03:00 16.02629 -16.47489 32869 ft 519 kts 32°
2026-04-26 03:01 16.08435 -16.42998 32865 ft 518 kts 31°
2026-04-26 03:01 16.14314 -16.38683 32863 ft 517 kts 30°
2026-04-26 03:02 16.20210 -16.34370 32865 ft 518 kts 30°
2026-04-26 03:02 16.26051 -16.30055 32865 ft 518 kts 30°
2026-04-26 03:03 16.31955 -16.25673 32861 ft 518 kts 30°
2026-04-26 03:03 16.37802 -16.21330 32861 ft 519 kts 30°
2026-04-26 03:04 16.43673 -16.16969 32860 ft 519 kts 30°
2026-04-26 03:04 16.49548 -16.12603 32856 ft 519 kts 30°
2026-04-26 03:05 16.55423 -16.08232 32853 ft 519 kts 30°
2026-04-26 03:05 16.61289 -16.03862 32855 ft 519 kts 30°
2026-04-26 03:06 16.67169 -15.99477 32857 ft 519 kts 30°
2026-04-26 03:06 16.73043 -15.95092 32849 ft 519 kts 30°
2026-04-26 03:07 16.78923 -15.90700 32851 ft 519 kts 30°
2026-04-26 03:07 16.84792 -15.86313 32852 ft 519 kts 30°
2026-04-26 03:08 16.90632 -15.81944 32848 ft 520 kts 30°
2026-04-26 03:08 16.96518 -15.77536 32848 ft 520 kts 30°
2026-04-26 03:09 17.02403 -15.73126 32848 ft 520 kts 30°
2026-04-26 03:09 17.08284 -15.68715 32851 ft 521 kts 30°
2026-04-26 03:10 17.14178 -15.64294 32844 ft 521 kts 30°
2026-04-26 03:10 17.20071 -15.59879 32845 ft 521 kts 30°
2026-04-26 03:11 17.25951 -15.55469 32841 ft 522 kts 30°
2026-04-26 03:11 17.31853 -15.51038 32839 ft 522 kts 30°
2026-04-26 03:12 17.37758 -15.46598 32840 ft 522 kts 30°
2026-04-26 03:12 17.43642 -15.42172 32837 ft 523 kts 30°
2026-04-26 03:13 17.49560 -15.37716 32841 ft 523 kts 30°
2026-04-26 03:13 17.55476 -15.33259 32835 ft 523 kts 30°
2026-04-26 03:14 17.61385 -15.28801 32834 ft 524 kts 30°
2026-04-26 03:14 17.67270 -15.24363 32824 ft 524 kts 30°
2026-04-26 03:15 17.73198 -15.19899 32832 ft 524 kts 30°
2026-04-26 03:15 17.79127 -15.15428 32827 ft 525 kts 30°
2026-04-26 03:16 17.85057 -15.10951 32822 ft 526 kts 30°
2026-04-26 03:16 17.91004 -15.06458 32817 ft 526 kts 30°
2026-04-26 03:17 17.96959 -15.01953 32823 ft 526 kts 30°
2026-04-26 03:17 18.02863 -14.97482 32822 ft 527 kts 29°
2026-04-26 03:18 18.08805 -14.92978 32824 ft 527 kts 29°
2026-04-26 03:18 18.13757 -14.89221 32819 ft 527 kts 29°
2026-04-26 03:19 18.19713 -14.84700 32823 ft 528 kts 29°
2026-04-26 03:19 18.25674 -14.80171 32818 ft 528 kts 29°
2026-04-26 03:20 18.31641 -14.75632 32816 ft 528 kts 29°
2026-04-26 03:20 18.37560 -14.71127 32818 ft 529 kts 29°
2026-04-26 03:21 18.43524 -14.66584 32818 ft 529 kts 29°
2026-04-26 03:21 18.49501 -14.62027 32807 ft 529 kts 29°
2026-04-26 03:22 18.55471 -14.57471 32822 ft 530 kts 29°
2026-04-26 03:22 18.61448 -14.52906 32804 ft 530 kts 29°
2026-04-26 03:23 18.67391 -14.48362 32810 ft 531 kts 29°
2026-04-26 03:23 18.73381 -14.43779 32808 ft 531 kts 29°
2026-04-26 03:24 18.79371 -14.39192 32809 ft 532 kts 29°
2026-04-26 03:24 18.85364 -14.34598 32810 ft 532 kts 29°
2026-04-26 03:25 18.91329 -14.30021 32811 ft 533 kts 29°
2026-04-26 03:25 18.97335 -14.25409 32809 ft 533 kts 29°
2026-04-26 03:26 19.03346 -14.20789 32811 ft 534 kts 29°
2026-04-26 03:26 19.09361 -14.16161 32806 ft 534 kts 29°
2026-04-26 03:27 19.15370 -14.11534 32808 ft 535 kts 29°
2026-04-26 03:27 19.21389 -14.06895 32804 ft 535 kts 29°
2026-04-26 03:28 19.27363 -14.02286 32809 ft 535 kts 29°
2026-04-26 03:28 19.33382 -13.97638 32811 ft 535 kts 29°
2026-04-26 03:29 19.39409 -13.92980 32814 ft 535 kts 29°
2026-04-26 03:29 19.45431 -13.88321 32816 ft 536 kts 29°
2026-04-26 03:30 19.51467 -13.83647 32813 ft 536 kts 29°
2026-04-26 03:30 19.57445 -13.79013 32812 ft 536 kts 29°
2026-04-26 03:31 19.63465 -13.74343 32817 ft 536 kts 29°
2026-04-26 03:31 19.69497 -13.69659 32801 ft 537 kts 29°
2026-04-26 03:32 19.75511 -13.64984 32828 ft 537 kts 29°
2026-04-26 03:32 19.81551 -13.60285 32813 ft 537 kts 29°
2026-04-26 03:33 19.87542 -13.55620 32816 ft 538 kts 29°
2026-04-26 03:33 19.93582 -13.50910 32824 ft 538 kts 28°
2026-04-26 03:34 19.99618 -13.46200 32828 ft 538 kts 28°
2026-04-26 03:34 20.05648 -13.41490 32830 ft 538 kts 28°
2026-04-26 03:35 20.11693 -13.36764 32829 ft 539 kts 28°
2026-04-26 03:35 20.17733 -13.32038 32832 ft 539 kts 28°
2026-04-26 03:36 20.23743 -13.27329 32835 ft 539 kts 28°
2026-04-26 03:36 20.29785 -13.22591 32845 ft 539 kts 29°
2026-04-26 03:37 20.35833 -13.17843 32848 ft 539 kts 28°
2026-04-26 03:37 20.41881 -13.13090 32853 ft 540 kts 28°
2026-04-26 03:38 20.47924 -13.08334 32844 ft 540 kts 29°
2026-04-26 03:38 20.53598 -13.03022 32858 ft 550 kts 38°
2026-04-26 03:39 20.58942 -12.97154 32863 ft 551 kts 39°
2026-04-26 03:39 20.64284 -12.91249 32860 ft 551 kts 39°
2026-04-26 03:40 20.69650 -12.85387 32871 ft 551 kts 39°
2026-04-26 03:40 20.75013 -12.79563 32871 ft 551 kts 39°
2026-04-26 03:41 20.80397 -12.73716 32873 ft 551 kts 39°
2026-04-26 03:41 20.85728 -12.67910 32870 ft 550 kts 39°
2026-04-26 03:42 20.91089 -12.62065 32869 ft 550 kts 39°
2026-04-26 03:42 20.96443 -12.56220 32873 ft 550 kts 39°
2026-04-26 03:43 21.01804 -12.50362 32874 ft 550 kts 39°
2026-04-26 03:43 21.07163 -12.44499 32870 ft 550 kts 39°
2026-04-26 03:44 21.12518 -12.38634 32870 ft 550 kts 39°
2026-04-26 03:44 21.17836 -12.32803 32872 ft 550 kts 39°
2026-04-26 03:45 21.23180 -12.26937 32874 ft 550 kts 39°
2026-04-26 03:45 21.28524 -12.21065 32873 ft 549 kts 39°
2026-04-26 03:46 21.33862 -12.15194 32871 ft 549 kts 39°
2026-04-26 03:47 21.41858 -12.06384 32880 ft 549 kts 39°
2026-04-26 03:47 21.47183 -12.00509 32882 ft 549 kts 40°
2026-04-26 03:48 21.52480 -11.94657 32881 ft 549 kts 40°
2026-04-26 03:48 21.57813 -11.88763 32885 ft 549 kts 40°
2026-04-26 03:49 21.63147 -11.82881 32882 ft 549 kts 40°
2026-04-26 03:49 21.68487 -11.76994 32883 ft 549 kts 40°
2026-04-26 03:50 21.73773 -11.71158 32884 ft 549 kts 40°
2026-04-26 03:50 21.79097 -11.65268 32891 ft 549 kts 40°
2026-04-26 03:51 21.84423 -11.59369 32888 ft 549 kts 40°
2026-04-26 03:51 21.89749 -11.53463 32885 ft 549 kts 40°
2026-04-26 03:52 21.95050 -11.47578 32892 ft 548 kts 40°
2026-04-26 03:52 22.00367 -11.41670 32879 ft 548 kts 40°
2026-04-26 03:53 22.05678 -11.35761 32875 ft 548 kts 40°
2026-04-26 03:53 22.10955 -11.29883 32891 ft 548 kts 40°
2026-04-26 03:54 22.16266 -11.23960 32885 ft 548 kts 40°
2026-04-26 03:54 22.21572 -11.18037 32889 ft 548 kts 40°
2026-04-26 03:55 22.26829 -11.12161 32889 ft 548 kts 40°
2026-04-26 03:55 22.32152 -11.06204 32892 ft 549 kts 41°
2026-04-26 03:56 22.37445 -11.00274 32899 ft 549 kts 41°
2026-04-26 03:56 22.42747 -10.94327 32896 ft 549 kts 41°
2026-04-26 03:57 22.48051 -10.88371 32893 ft 548 kts 41°
2026-04-26 03:57 22.53337 -10.82427 32893 ft 549 kts 41°
2026-04-26 03:58 22.58600 -10.76503 32889 ft 548 kts 41°
2026-04-26 03:58 22.63890 -10.70541 32893 ft 548 kts 41°
2026-04-26 03:59 22.69175 -10.64577 32892 ft 548 kts 41°
2026-04-26 03:59 22.74454 -10.58613 32894 ft 548 kts 41°
2026-04-26 04:00 22.79706 -10.52673 32896 ft 548 kts 41°
2026-04-26 04:00 22.84984 -10.46695 32893 ft 549 kts 41°
2026-04-26 04:01 22.90270 -10.40704 32895 ft 548 kts 41°
2026-04-26 04:01 22.95520 -10.34752 32888 ft 548 kts 41°
2026-04-26 04:02 23.00801 -10.28758 32894 ft 548 kts 41°
2026-04-26 04:02 23.06068 -10.22770 32897 ft 548 kts 41°
2026-04-26 04:03 23.11324 -10.16786 32897 ft 547 kts 41°
2026-04-26 04:03 23.16584 -10.10790 32884 ft 547 kts 41°
2026-04-26 04:04 23.21800 -10.04838 32882 ft 547 kts 41°
2026-04-26 04:04 23.27050 -9.98839 32888 ft 546 kts 41°
2026-04-26 04:05 23.32283 -9.92853 32884 ft 546 kts 41°
2026-04-26 04:05 23.37525 -9.86849 32894 ft 545 kts 41°
2026-04-26 04:06 23.41863 -9.81874 32891 ft 545 kts 41°
2026-04-26 04:06 23.47942 -9.74896 32895 ft 545 kts 41°
2026-04-26 04:07 23.53162 -9.68895 32893 ft 545 kts 41°
2026-04-26 04:07 23.57508 -9.63894 32892 ft 545 kts 42°
2026-04-26 04:08 23.62707 -9.57904 32888 ft 545 kts 42°
2026-04-26 04:08 23.67932 -9.51875 32889 ft 545 kts 42°
2026-04-26 04:09 23.73105 -9.45900 32888 ft 545 kts 42°
2026-04-26 04:09 23.78315 -9.39875 32886 ft 544 kts 42°
2026-04-26 04:10 23.83515 -9.33853 32887 ft 544 kts 42°
2026-04-26 04:10 23.88698 -9.27844 32886 ft 543 kts 42°
2026-04-26 04:11 23.93864 -9.21848 32884 ft 543 kts 42°
2026-04-26 04:11 23.99040 -9.15831 32890 ft 542 kts 42°
2026-04-26 04:12 24.04207 -9.09817 32884 ft 542 kts 42°
2026-04-26 04:12 24.09359 -9.03814 32883 ft 541 kts 42°
2026-04-26 04:13 24.14519 -8.97793 32883 ft 541 kts 42°
2026-04-26 04:13 24.19643 -8.91806 32883 ft 540 kts 42°
2026-04-26 04:14 24.24792 -8.85783 32883 ft 540 kts 42°
2026-04-26 04:14 24.29928 -8.79769 32882 ft 539 kts 42°
2026-04-26 04:15 24.35029 -8.73786 32880 ft 539 kts 42°
2026-04-26 04:15 24.40143 -8.67779 32883 ft 539 kts 43°
2026-04-26 04:16 24.45263 -8.61756 32877 ft 538 kts 43°
2026-04-26 04:16 24.50368 -8.55743 32880 ft 538 kts 43°
2026-04-26 04:17 24.55459 -8.49739 32878 ft 538 kts 43°
2026-04-26 04:17 24.60565 -8.43711 32877 ft 537 kts 43°
2026-04-26 04:18 24.65653 -8.37697 33235 ft 541 kts 43°
2026-04-26 04:18 24.68215 -8.34664 33668 ft 539 kts 43°
2026-04-26 04:18 24.70766 -8.31641 34083 ft 537 kts 43°
2026-04-26 04:18 24.73299 -8.28638 34404 ft 536 kts 43°
2026-04-26 04:19 24.75845 -8.25619 34666 ft 537 kts 43°
2026-04-26 04:19 24.78390 -8.22601 34907 ft 539 kts 43°
2026-04-26 04:19 24.80939 -8.19576 35145 ft 540 kts 43°
2026-04-26 04:19 24.83501 -8.16533 35421 ft 540 kts 42°
2026-04-26 04:20 24.86052 -8.13500 35685 ft 541 kts 42°
2026-04-26 04:20 24.88604 -8.10464 35928 ft 542 kts 42°
2026-04-26 04:20 24.91174 -8.07404 36170 ft 542 kts 42°
2026-04-26 04:20 24.93733 -8.04356 36420 ft 543 kts 42°
2026-04-26 04:21 24.96300 -8.01295 36657 ft 543 kts 42°
2026-04-26 04:21 24.98839 -7.98267 36796 ft 545 kts 42°
2026-04-26 04:21 25.01421 -7.95186 36847 ft 547 kts 42°
2026-04-26 04:22 25.06574 -7.89026 36860 ft 544 kts 42°
2026-04-26 04:22 25.11689 -7.82904 36859 ft 541 kts 42°
2026-04-26 04:23 25.16778 -7.76809 36861 ft 539 kts 42°
2026-04-26 04:23 25.21856 -7.70723 36864 ft 538 kts 42°
2026-04-26 04:24 25.26934 -7.64630 36864 ft 539 kts 42°
2026-04-26 04:24 25.31978 -7.58568 36864 ft 540 kts 42°
2026-04-26 04:25 25.37067 -7.52442 36863 ft 541 kts 42°
2026-04-26 04:25 25.42160 -7.46303 36865 ft 542 kts 42°
2026-04-26 04:26 25.47265 -7.40140 36848 ft 543 kts 42°
2026-04-26 04:26 25.52376 -7.33962 36848 ft 544 kts 42°
2026-04-26 04:27 25.57477 -7.27790 36849 ft 543 kts 42°
2026-04-26 04:27 25.62585 -7.21609 36849 ft 543 kts 42°
2026-04-26 04:28 25.67649 -7.15471 36846 ft 542 kts 43°
2026-04-26 04:28 25.72716 -7.09319 36847 ft 541 kts 43°
2026-04-26 04:29 25.77798 -7.03140 36844 ft 540 kts 43°
2026-04-26 04:29 25.82858 -6.96981 36843 ft 539 kts 43°
2026-04-26 04:30 25.87895 -6.90840 36837 ft 538 kts 43°
2026-04-26 04:30 25.92934 -6.84689 36841 ft 537 kts 43°
2026-04-26 04:31 25.97963 -6.78540 36841 ft 537 kts 43°
2026-04-26 04:31 26.02959 -6.72424 36832 ft 537 kts 43°
2026-04-26 04:32 26.07982 -6.66267 36840 ft 537 kts 43°
2026-04-26 04:32 26.13043 -6.60166 36825 ft 535 kts 40°
2026-04-26 04:33 26.18353 -6.54350 36834 ft 533 kts 39°
2026-04-26 04:33 26.23673 -6.48654 36828 ft 533 kts 39°
2026-04-26 04:34 26.29004 -6.42902 36824 ft 533 kts 39°
2026-04-26 04:34 26.34304 -6.37132 36831 ft 533 kts 39°
2026-04-26 04:35 26.39611 -6.31332 36812 ft 533 kts 39°
2026-04-26 04:35 26.44889 -6.25558 36830 ft 532 kts 39°
2026-04-26 04:36 26.50180 -6.19765 36819 ft 532 kts 39°
2026-04-26 04:36 26.55464 -6.13974 36822 ft 531 kts 39°
2026-04-26 04:37 26.60702 -6.08225 36816 ft 530 kts 39°
2026-04-26 04:37 26.65963 -6.02442 36814 ft 530 kts 39°
2026-04-26 04:38 26.71213 -5.96665 36815 ft 529 kts 40°
2026-04-26 04:38 26.76459 -5.90883 36813 ft 528 kts 40°
2026-04-26 04:39 26.81693 -5.85107 36813 ft 528 kts 40°
2026-04-26 04:39 26.86889 -5.79365 36814 ft 527 kts 40°
2026-04-26 04:40 26.92108 -5.73589 36814 ft 527 kts 40°
2026-04-26 04:40 26.97317 -5.67817 36812 ft 527 kts 40°
2026-04-26 04:41 27.02533 -5.62028 36809 ft 526 kts 40°
2026-04-26 04:41 27.07713 -5.56272 36806 ft 526 kts 40°
2026-04-26 04:42 27.12912 -5.50488 36792 ft 526 kts 40°
2026-04-26 04:42 27.18104 -5.44702 36815 ft 525 kts 40°
2026-04-26 04:43 27.23288 -5.38917 36815 ft 525 kts 40°
2026-04-26 04:43 27.28473 -5.33123 36794 ft 524 kts 40°
2026-04-26 04:44 27.33608 -5.27377 36800 ft 524 kts 40°
2026-04-26 04:44 27.38776 -5.21587 36798 ft 524 kts 40°
2026-04-26 04:45 27.43936 -5.15797 36805 ft 523 kts 40°
2026-04-26 04:45 27.49090 -5.10006 36803 ft 523 kts 40°
2026-04-26 04:46 27.54212 -5.04242 36803 ft 522 kts 40°
2026-04-26 04:46 27.59347 -4.98456 36804 ft 522 kts 40°
2026-04-26 04:47 27.64486 -4.92658 36799 ft 522 kts 40°
2026-04-26 04:47 27.69619 -4.86858 36805 ft 521 kts 40°
2026-04-26 04:48 27.77284 -4.78181 36809 ft 520 kts 40°
2026-04-26 04:48 27.82354 -4.72430 36810 ft 519 kts 40°
2026-04-26 04:49 27.87452 -4.66642 36804 ft 518 kts 40°
2026-04-26 04:49 27.92535 -4.60860 36808 ft 517 kts 41°
2026-04-26 04:50 27.97610 -4.55080 36809 ft 517 kts 41°
2026-04-26 04:50 28.02648 -4.49337 36812 ft 522 kts 40°
2026-04-26 04:51 28.07880 -4.43494 36825 ft 532 kts 39°
2026-04-26 04:51 28.13234 -4.37597 36827 ft 539 kts 39°
2026-04-26 04:52 28.18610 -4.31648 36823 ft 539 kts 40°
2026-04-26 04:52 28.23961 -4.25697 36818 ft 538 kts 40°
2026-04-26 04:53 28.29291 -4.19755 36805 ft 536 kts 40°
2026-04-26 04:53 28.34594 -4.13837 36821 ft 534 kts 40°
2026-04-26 04:54 28.38992 -4.08924 36811 ft 532 kts 40°
2026-04-26 04:54 28.45110 -4.02081 36815 ft 530 kts 40°
2026-04-26 04:55 28.49477 -3.97189 36819 ft 529 kts 40°
2026-04-26 04:55 28.54711 -3.91317 36816 ft 528 kts 40°
2026-04-26 04:56 28.59936 -3.85448 36818 ft 527 kts 41°
2026-04-26 04:56 28.65153 -3.79578 36817 ft 527 kts 41°
2026-04-26 04:57 28.70379 -3.73689 36822 ft 528 kts 41°
2026-04-26 04:57 28.75569 -3.67832 36820 ft 528 kts 41°
2026-04-26 04:58 28.80793 -3.61927 36827 ft 528 kts 41°
2026-04-26 04:58 28.85998 -3.56035 36825 ft 528 kts 41°
2026-04-26 04:59 28.91219 -3.50117 36822 ft 528 kts 41°
2026-04-26 04:59 28.96406 -3.44228 36823 ft 528 kts 41°
2026-04-26 05:00 29.01616 -3.38304 36825 ft 527 kts 42°
2026-04-26 05:00 29.06812 -3.32387 36827 ft 527 kts 42°
2026-04-26 05:01 29.12000 -3.26470 36825 ft 526 kts 42°
2026-04-26 05:01 29.17149 -3.20589 36828 ft 526 kts 42°
2026-04-26 05:02 29.22314 -3.14679 36826 ft 525 kts 42°
2026-04-26 05:02 29.27483 -3.08774 36830 ft 525 kts 42°
2026-04-26 05:03 29.32684 -3.02891 36834 ft 524 kts 42°
2026-04-26 05:03 29.37880 -2.97017 36832 ft 523 kts 42°
2026-04-26 05:04 29.43056 -2.91145 36838 ft 523 kts 42°
2026-04-26 05:04 29.48187 -2.85309 36836 ft 522 kts 42°
2026-04-26 05:05 29.53343 -2.79436 36843 ft 522 kts 42°
2026-04-26 05:05 29.58490 -2.73564 36843 ft 521 kts 42°
2026-04-26 05:06 29.63640 -2.67680 36849 ft 521 kts 42°
2026-04-26 05:06 29.68793 -2.61784 36850 ft 521 kts 42°
2026-04-26 05:07 29.73922 -2.55906 36849 ft 521 kts 43°
2026-04-26 05:07 29.79026 -2.50048 36850 ft 520 kts 43°
2026-04-26 05:08 29.84143 -2.44166 36853 ft 520 kts 43°
2026-04-26 05:08 29.89260 -2.38274 36857 ft 519 kts 43°
2026-04-26 05:09 29.94373 -2.32377 36857 ft 519 kts 43°
2026-04-26 05:09 29.99479 -2.26480 36848 ft 519 kts 43°
2026-04-26 05:10 30.04779 -2.20861 36850 ft 515 kts 35°
2026-04-26 05:10 30.10453 -2.15893 36854 ft 514 kts 34°
2026-04-26 05:11 30.16183 -2.10950 36853 ft 514 kts 34°
2026-04-26 05:11 30.21899 -2.05953 36857 ft 514 kts 34°
2026-04-26 05:12 30.27563 -2.00952 36854 ft 514 kts 34°
2026-04-26 05:12 30.33243 -1.95922 36858 ft 514 kts 34°
2026-04-26 05:13 30.38930 -1.90881 36859 ft 514 kts 34°
2026-04-26 05:13 30.44567 -1.85881 36868 ft 513 kts 34°
2026-04-26 05:14 30.50246 -1.80836 36866 ft 513 kts 34°
2026-04-26 05:14 30.55907 -1.75799 36873 ft 512 kts 34°
2026-04-26 05:15 30.61552 -1.70770 36875 ft 512 kts 35°
2026-04-26 05:15 30.67175 -1.65751 36878 ft 511 kts 35°
2026-04-26 05:16 30.72822 -1.60704 36884 ft 511 kts 35°
2026-04-26 05:16 30.78453 -1.55663 36888 ft 510 kts 35°
2026-04-26 05:17 30.84072 -1.50626 36892 ft 510 kts 35°
2026-04-26 05:17 30.89695 -1.45576 36894 ft 509 kts 35°
2026-04-26 05:18 30.95263 -1.40569 36901 ft 508 kts 35°
2026-04-26 05:18 31.00870 -1.35522 36899 ft 508 kts 35°
2026-04-26 05:19 31.05556 -1.31379 36907 ft 507 kts 34°
2026-04-26 05:19 31.11203 -1.26433 36910 ft 507 kts 34°
2026-04-26 05:20 31.16838 -1.21483 36916 ft 507 kts 34°
2026-04-26 05:20 31.23388 -1.15702 36922 ft 507 kts 34°
2026-04-26 05:21 31.28105 -1.11528 36914 ft 507 kts 35°
2026-04-26 05:21 31.33693 -1.06578 36921 ft 507 kts 35°
2026-04-26 05:22 31.34644 -1.05734 36920 ft 507 kts 35°
2026-04-26 05:22 31.44939 -0.96593 36923 ft 507 kts 35°
2026-04-26 05:23 31.50523 -0.91625 36928 ft 507 kts 35°
2026-04-26 05:23 31.54298 -0.88261 36930 ft 507 kts 35°
2026-04-26 05:24 31.62729 -0.80735 36932 ft 507 kts 35°
2026-04-26 05:24 31.67408 -0.76552 36933 ft 507 kts 35°
2026-04-26 05:25 31.73940 -0.70702 36941 ft 508 kts 35°
2026-04-26 05:25 31.78611 -0.66511 36940 ft 508 kts 35°
2026-04-26 05:26 31.85150 -0.60637 36943 ft 508 kts 35°
2026-04-26 05:26 31.90771 -0.55594 36946 ft 508 kts 34°
2026-04-26 05:27 31.96419 -0.50599 36950 ft 508 kts 34°
2026-04-26 05:27 32.02066 -0.45615 36954 ft 508 kts 34°
2026-04-26 05:28 32.07720 -0.40606 36956 ft 508 kts 34°
2026-04-26 05:28 32.13337 -0.35614 36963 ft 508 kts 34°
2026-04-26 05:29 32.18982 -0.30586 36970 ft 509 kts 34°
2026-04-26 05:29 32.24641 -0.25539 36972 ft 509 kts 34°
2026-04-26 05:30 32.30288 -0.20495 36959 ft 509 kts 34°
2026-04-26 05:30 32.35942 -0.15436 36964 ft 509 kts 34°
2026-04-26 05:31 32.41587 -0.10378 36973 ft 509 kts 34°
2026-04-26 05:31 32.47240 -0.05304 36978 ft 509 kts 34°
2026-04-26 05:32 32.52886 -0.00229 36983 ft 509 kts 34°
2026-04-26 05:32 32.58492 0.04819 36987 ft 510 kts 34°
2026-04-26 05:33 32.64139 0.09912 36989 ft 510 kts 34°
2026-04-26 05:33 32.69793 0.15020 36987 ft 510 kts 34°
2026-04-26 05:34 32.75440 0.20129 36991 ft 510 kts 34°
2026-04-26 05:34 32.81077 0.25238 36990 ft 510 kts 34°
2026-04-26 05:35 32.86652 0.30299 36997 ft 509 kts 34°
2026-04-26 05:35 32.92341 0.35473 37005 ft 509 kts 34°
2026-04-26 05:36 32.97935 0.40568 37007 ft 509 kts 34°
2026-04-26 05:36 33.03559 0.45698 37009 ft 509 kts 34°
2026-04-26 05:37 33.09193 0.50846 37009 ft 510 kts 34°
2026-04-26 05:37 33.14832 0.56008 37009 ft 510 kts 34°
2026-04-26 05:38 33.20465 0.61172 37016 ft 511 kts 34°
2026-04-26 05:38 33.26076 0.66325 37016 ft 511 kts 34°
2026-04-26 05:39 33.31720 0.71517 37019 ft 512 kts 34°
2026-04-26 05:39 33.37361 0.76715 37028 ft 512 kts 34°
2026-04-26 05:40 33.42990 0.81911 37029 ft 512 kts 34°
2026-04-26 05:40 33.48621 0.87117 37025 ft 513 kts 34°
2026-04-26 05:41 33.54276 0.92355 37016 ft 513 kts 34°
2026-04-26 05:41 33.59926 0.97598 37012 ft 514 kts 34°
2026-04-26 05:42 33.65586 1.02858 36998 ft 514 kts 34°
2026-04-26 05:42 33.71617 1.07295 36999 ft 506 kts 20°
2026-04-26 05:43 33.77079 1.09648 36996 ft 498 kts
2026-04-26 05:43 33.83843 1.11402 37010 ft 497 kts
2026-04-26 05:44 33.90632 1.13079 37007 ft 498 kts
2026-04-26 05:44 33.97413 1.14811 37046 ft 499 kts
2026-04-26 05:45 34.04160 1.16579 37044 ft 500 kts
2026-04-26 05:45 34.10957 1.18374 37058 ft 500 kts
2026-04-26 05:46 34.17763 1.20172 37060 ft 500 kts
2026-04-26 05:46 34.24573 1.21970 37061 ft 501 kts
2026-04-26 05:47 34.31382 1.23771 37066 ft 501 kts
2026-04-26 05:47 34.38198 1.25577 37065 ft 501 kts
2026-04-26 05:48 34.45015 1.27386 37065 ft 501 kts
2026-04-26 05:48 34.51822 1.29195 37066 ft 501 kts
2026-04-26 05:49 34.62040 1.31917 37074 ft 501 kts
2026-04-26 05:50 34.68816 1.33725 37078 ft 501 kts
2026-04-26 05:50 34.75627 1.35546 37074 ft 502 kts
2026-04-26 05:51 34.82448 1.37373 37085 ft 502 kts
2026-04-26 05:51 34.89290 1.39208 37085 ft 503 kts
2026-04-26 05:52 34.96148 1.41051 37083 ft 504 kts
2026-04-26 05:52 35.02966 1.42886 37095 ft 505 kts
2026-04-26 05:53 35.09821 1.44735 37106 ft 505 kts
2026-04-26 05:53 35.16683 1.46589 37119 ft 505 kts
2026-04-26 05:54 35.23558 1.48450 37132 ft 505 kts
2026-04-26 05:54 35.30437 1.50314 37130 ft 505 kts
2026-04-26 05:55 35.37151 1.52625 37132 ft 510 kts 18°
2026-04-26 05:55 35.43703 1.56087 37125 ft 511 kts 21°
2026-04-26 05:56 35.50196 1.59643 37116 ft 510 kts 20°
2026-04-26 05:56 35.56688 1.63149 37107 ft 510 kts 20°
2026-04-26 05:57 35.63214 1.66637 37099 ft 510 kts 20°
2026-04-26 05:57 35.69684 1.70092 37093 ft 509 kts 20°
2026-04-26 05:58 35.76178 1.73570 37098 ft 509 kts 20°
2026-04-26 05:58 35.82685 1.77065 37102 ft 509 kts 21°
2026-04-26 05:59 35.89169 1.80553 37096 ft 509 kts 21°
2026-04-26 05:59 35.95666 1.84054 37099 ft 509 kts 21°
2026-04-26 06:00 36.02114 1.87536 37107 ft 508 kts 21°
2026-04-26 06:00 36.08605 1.91048 37100 ft 508 kts 21°
2026-04-26 06:01 36.15085 1.94559 37104 ft 508 kts 21°
2026-04-26 06:01 36.21562 1.98084 37092 ft 508 kts 22°
2026-04-26 06:02 36.28012 2.01620 37093 ft 507 kts 22°
2026-04-26 06:02 36.34477 2.05172 37108 ft 507 kts 22°
2026-04-26 06:03 36.40930 2.08721 37104 ft 508 kts 22°
2026-04-26 06:03 36.47349 2.12255 37100 ft 508 kts 22°
2026-04-26 06:04 36.53800 2.15816 37099 ft 508 kts 22°
2026-04-26 06:04 36.60422 2.18781 37106 ft 504 kts 12°
2026-04-26 06:05 36.67319 2.20257 37099 ft 501 kts
2026-04-26 06:05 36.74259 2.20981 37102 ft 500 kts
2026-04-26 06:06 36.81197 2.21677 37098 ft 500 kts
2026-04-26 06:06 36.88132 2.22425 37095 ft 499 kts
2026-04-26 06:07 36.95000 2.23196 37095 ft 499 kts
2026-04-26 06:07 37.01904 2.23976 37097 ft 498 kts
2026-04-26 06:08 37.08811 2.24756 37097 ft 498 kts
2026-04-26 06:08 37.15717 2.25535 37101 ft 497 kts
2026-04-26 06:09 37.22571 2.26309 37103 ft 497 kts
2026-04-26 06:09 37.29467 2.27089 37103 ft 497 kts
2026-04-26 06:10 37.36357 2.27870 37103 ft 497 kts
2026-04-26 06:10 37.43246 2.28653 37105 ft 496 kts
2026-04-26 06:11 37.50088 2.29432 37108 ft 496 kts
2026-04-26 06:11 37.56960 2.30215 37114 ft 495 kts
2026-04-26 06:12 37.63819 2.30999 37113 ft 495 kts
2026-04-26 06:12 37.70682 2.31785 37115 ft 494 kts
2026-04-26 06:13 37.77520 2.32702 37111 ft 493 kts 10°
2026-04-26 06:13 37.84091 2.34941 37122 ft 493 kts 21°
2026-04-26 06:14 37.90357 2.38395 37123 ft 492 kts 25°
2026-04-26 06:14 37.96588 2.42031 37126 ft 491 kts 25°
2026-04-26 06:15 38.02817 2.45638 37121 ft 491 kts 25°
2026-04-26 06:15 38.09036 2.49201 37125 ft 491 kts 25°
2026-04-26 06:16 38.15234 2.52744 37126 ft 490 kts 25°
2026-04-26 06:16 38.21454 2.56306 37130 ft 490 kts 25°
2026-04-26 06:17 38.27665 2.59871 37129 ft 489 kts 25°
2026-04-26 06:17 38.33874 2.63443 37133 ft 488 kts 25°
2026-04-26 06:18 38.40054 2.67006 37133 ft 487 kts 25°
2026-04-26 06:18 38.46193 2.70552 37134 ft 486 kts 25°
2026-04-26 06:19 38.52358 2.74119 37135 ft 486 kts 25°
2026-04-26 06:19 38.58522 2.77692 37139 ft 485 kts 25°
2026-04-26 06:20 38.64672 2.81264 37139 ft 485 kts 25°
2026-04-26 06:20 38.70822 2.84843 37143 ft 485 kts 25°
2026-04-26 06:21 38.76968 2.88427 37145 ft 485 kts 25°
2026-04-26 06:21 38.83067 2.91989 37144 ft 485 kts 25°
2026-04-26 06:22 38.89225 2.95593 37144 ft 485 kts 25°
2026-04-26 06:22 38.95362 2.99191 37148 ft 485 kts 25°
2026-04-26 06:23 39.01514 3.02805 37153 ft 485 kts 25°
2026-04-26 06:23 39.07633 3.06407 37151 ft 484 kts 25°
2026-04-26 06:24 39.13756 3.10018 37153 ft 483 kts 25°
2026-04-26 06:24 39.19834 3.13610 37158 ft 482 kts 25°
2026-04-26 06:25 39.25922 3.17214 37155 ft 481 kts 25°
2026-04-26 06:25 39.32000 3.20818 37156 ft 480 kts 25°
2026-04-26 06:26 39.38067 3.24424 37156 ft 479 kts 25°
2026-04-26 06:26 39.44121 3.28029 37156 ft 478 kts 25°
2026-04-26 06:27 39.50115 3.31605 37156 ft 477 kts 25°
2026-04-26 06:27 39.56146 3.35211 37159 ft 476 kts 25°
2026-04-26 06:28 39.62165 3.38816 37159 ft 476 kts 25°
2026-04-26 06:28 39.68197 3.42434 37159 ft 477 kts 25°
2026-04-26 06:29 39.74015 3.46473 37161 ft 477 kts 31°
2026-04-26 06:29 39.79730 3.50872 37159 ft 477 kts 31°
2026-04-26 06:30 39.85454 3.55298 37158 ft 478 kts 31°
2026-04-26 06:30 39.91195 3.59706 37157 ft 478 kts 31°
2026-04-26 06:31 39.96903 3.64077 37159 ft 479 kts 31°
2026-04-26 06:31 40.02663 3.68493 37157 ft 479 kts 31°
2026-04-26 06:32 40.08380 3.72886 37155 ft 479 kts 31°
2026-04-26 06:32 40.14131 3.77316 37154 ft 479 kts 31°
2026-04-26 06:33 40.18903 3.80998 37154 ft 479 kts 31°
2026-04-26 06:33 40.24653 3.85443 37157 ft 480 kts 31°
2026-04-26 06:34 40.30403 3.89897 37156 ft 480 kts 31°
2026-04-26 06:34 40.36153 3.94360 37155 ft 480 kts 31°
2026-04-26 06:35 40.41869 3.98806 37157 ft 480 kts 31°
2026-04-26 06:35 40.47623 4.03290 37153 ft 481 kts 31°
2026-04-26 06:36 40.53380 4.07785 37152 ft 481 kts 30°
2026-04-26 06:36 40.59124 4.12280 37152 ft 481 kts 30°
2026-04-26 06:37 40.64878 4.16790 37151 ft 480 kts 30°
2026-04-26 06:37 40.70591 4.21279 37152 ft 480 kts 30°
2026-04-26 06:38 40.76320 4.25789 37148 ft 480 kts 30°
2026-04-26 06:38 40.82053 4.30311 37151 ft 479 kts 30°
2026-04-26 06:39 40.87780 4.34838 37146 ft 479 kts 30°
2026-04-26 06:39 40.93499 4.39369 37147 ft 479 kts 30°
2026-04-26 06:40 40.99208 4.43900 37144 ft 478 kts 30°
2026-04-26 06:40 41.04970 4.48325 37141 ft 477 kts 25°
2026-04-26 06:41 41.11161 4.51396 37150 ft 475 kts 14°
2026-04-26 06:41 41.17604 4.53114 37152 ft 474 kts
2026-04-26 06:42 41.24106 4.54611 37143 ft 474 kts
2026-04-26 06:42 41.30614 4.56155 37138 ft 474 kts
2026-04-26 06:43 41.37109 4.57743 37140 ft 474 kts
2026-04-26 06:43 41.43604 4.59346 37121 ft 474 kts
2026-04-26 06:44 41.50095 4.60950 37139 ft 474 kts
2026-04-26 06:44 41.56525 4.62538 37124 ft 474 kts
2026-04-26 06:45 41.63027 4.64149 37123 ft 474 kts
2026-04-26 06:45 41.69509 4.65757 37139 ft 474 kts
2026-04-26 06:46 41.75956 4.67637 37139 ft 475 kts 14°
2026-04-26 06:46 41.82291 4.70148 37116 ft 475 kts 15°
2026-04-26 06:47 41.88621 4.72719 37133 ft 475 kts 15°
2026-04-26 06:47 41.94969 4.75260 37123 ft 475 kts 15°
2026-04-26 06:48 42.01331 4.77787 37114 ft 476 kts 15°
2026-04-26 06:48 42.07681 4.80308 37111 ft 476 kts 15°
2026-04-26 06:49 42.13989 4.82821 37107 ft 476 kts 15°
2026-04-26 06:49 42.20345 4.85359 37110 ft 476 kts 15°
2026-04-26 06:50 42.26695 4.87900 37117 ft 476 kts 15°
2026-04-26 06:50 42.33054 4.90450 37108 ft 476 kts 15°
2026-04-26 06:51 42.39404 4.93003 37105 ft 476 kts 15°
2026-04-26 06:51 42.48895 4.96828 37107 ft 476 kts 15°
2026-04-26 06:52 42.55245 4.99393 37104 ft 476 kts 15°
2026-04-26 06:52 42.61609 5.01934 37106 ft 476 kts 14°
2026-04-26 06:53 42.67979 5.04453 37107 ft 476 kts 14°
2026-04-26 06:53 42.74298 5.06966 37108 ft 476 kts 14°
2026-04-26 06:54 42.80567 5.09843 37093 ft 479 kts 26°
2026-04-26 06:54 42.85877 5.15338 37104 ft 484 kts 47°
2026-04-26 06:55 42.90012 5.22612 37117 ft 486 kts 52°
2026-04-26 06:55 42.94035 5.29966 37110 ft 486 kts 51°
2026-04-26 06:56 42.98147 5.37315 37109 ft 487 kts 51°
2026-04-26 06:56 43.02290 5.44654 37108 ft 487 kts 51°
2026-04-26 06:57 43.06428 5.52005 37109 ft 488 kts 51°
2026-04-26 06:57 43.10593 5.59327 37103 ft 487 kts 48°
2026-04-26 06:58 43.15073 5.66276 37115 ft 486 kts 46°
2026-04-26 06:58 43.19585 5.73113 37109 ft 486 kts 46°
2026-04-26 06:59 43.24092 5.80029 37109 ft 486 kts 46°
2026-04-26 06:59 43.28577 5.86970 37107 ft 487 kts 46°
2026-04-26 07:00 43.33060 5.93927 37114 ft 486 kts 46°
2026-04-26 07:00 43.37684 6.00705 37109 ft 482 kts 36°
2026-04-26 07:01 43.40514 6.03085 37128 ft 477 kts 21°
2026-04-26 07:01 43.43625 6.04550 37131 ft 473 kts
2026-04-26 07:01 43.50147 6.05299 37123 ft 470 kts
2026-04-26 07:02 43.56648 6.05797 37124 ft 472 kts
2026-04-26 07:02 43.63209 6.06418 37115 ft 475 kts
2026-04-26 07:03 43.69828 6.07079 37114 ft 476 kts
2026-04-26 07:03 43.76394 6.08309 37109 ft 479 kts 12°
2026-04-26 07:04 43.82673 6.11401 37109 ft 483 kts 23°
2026-04-26 07:04 43.88709 6.15568 37108 ft 484 kts 25°
2026-04-26 07:05 43.94730 6.19793 37097 ft 484 kts 24°
2026-04-26 07:05 44.00724 6.23925 37095 ft 483 kts 24°
2026-04-26 07:06 44.06754 6.28058 37094 ft 482 kts 24°
2026-04-26 07:06 44.12779 6.32198 37095 ft 482 kts 24°
2026-04-26 07:07 44.18791 6.36342 37093 ft 482 kts 24°
2026-04-26 07:07 44.24790 6.40488 37099 ft 481 kts 24°
2026-04-26 07:08 44.30748 6.44623 37105 ft 482 kts 24°
2026-04-26 07:08 44.36757 6.48803 37094 ft 482 kts 24°
2026-04-26 07:09 44.42732 6.52968 37122 ft 482 kts 24°
2026-04-26 07:09 44.48750 6.57171 37134 ft 482 kts 24°
2026-04-26 07:11 44.63801 6.67650 37125 ft 483 kts 24°
2026-04-26 07:11 44.69795 6.71840 37130 ft 484 kts 24°
2026-04-26 07:12 44.75842 6.76046 37121 ft 482 kts 21°
2026-04-26 07:12 44.82241 6.78525 37137 ft 477 kts
2026-04-26 07:13 44.88841 6.78634 37150 ft 473 kts 354°
2026-04-26 07:13 44.95410 6.78078 37143 ft 474 kts 354°
2026-04-26 07:14 45.01999 6.77564 37142 ft 474 kts 355°
2026-04-26 07:14 45.08553 6.77121 37147 ft 475 kts 355°
2026-04-26 07:15 45.15153 6.76691 37159 ft 476 kts 355°
2026-04-26 07:15 45.21792 6.76252 37159 ft 476 kts 355°
2026-04-26 07:16 45.28431 6.75812 37150 ft 476 kts 355°
2026-04-26 07:16 45.35047 6.75373 37151 ft 475 kts 355°
2026-04-26 07:17 45.41659 6.74957 37162 ft 475 kts 355°
2026-04-26 07:17 45.48264 6.74533 37161 ft 475 kts 355°
2026-04-26 07:18 45.54831 6.74086 37147 ft 475 kts 355°
2026-04-26 07:18 45.61418 6.73636 37157 ft 475 kts 355°
2026-04-26 07:19 45.68035 6.73185 37158 ft 475 kts 355°
2026-04-26 07:19 45.74624 6.72735 37160 ft 475 kts 355°
2026-04-26 07:20 45.81244 6.73305 37160 ft 480 kts
2026-04-26 07:20 45.87556 6.76307 37164 ft 484 kts 22°
2026-04-26 07:21 45.93683 6.80396 37173 ft 485 kts 23°
2026-04-26 07:21 45.99817 6.84535 37163 ft 485 kts 23°
2026-04-26 07:22 46.04926 6.87920 37161 ft 485 kts 22°
2026-04-26 07:22 46.11043 6.91938 37178 ft 485 kts 22°
2026-04-26 07:23 46.17188 6.95976 37188 ft 485 kts 22°
2026-04-26 07:23 46.23319 7.00020 37183 ft 485 kts 22°
2026-04-26 07:24 46.29453 7.04078 37198 ft 486 kts 22°
2026-04-26 07:24 46.35651 7.08189 37193 ft 486 kts 22°
2026-04-26 07:24 46.38747 7.10245 36508 ft 497 kts 22°
2026-04-26 07:25 46.41905 7.12345 35797 ft 498 kts 22°
2026-04-26 07:25 46.45040 7.14434 34944 ft 498 kts 23°
2026-04-26 07:25 46.48188 7.16535 34085 ft 498 kts 23°
2026-04-26 07:25 46.51329 7.18634 33091 ft 499 kts 23°
2026-04-26 07:26 46.54505 7.20777 32094 ft 500 kts 25°
2026-04-26 07:26 46.57496 7.23186 31095 ft 503 kts 30°
2026-04-26 07:26 46.60444 7.26091 30295 ft 502 kts 36°
2026-04-26 07:26 46.63079 7.29278 29543 ft 497 kts 40°
2026-04-26 07:27 46.65644 7.32583 28842 ft 491 kts 40°
2026-04-26 07:27 46.68167 7.35857 28174 ft 485 kts 40°
2026-04-26 07:27 46.70680 7.39088 27501 ft 480 kts 40°
2026-04-26 07:27 46.73206 7.42296 26851 ft 475 kts 40°
2026-04-26 07:28 46.75690 7.45439 26211 ft 471 kts 40°
2026-04-26 07:28 46.78112 7.48619 25555 ft 467 kts 43°
2026-04-26 07:28 46.80356 7.52033 24901 ft 464 kts 46°
2026-04-26 07:28 46.82498 7.55532 24266 ft 461 kts 47°
2026-04-26 07:29 46.84600 7.59063 23605 ft 458 kts 48°
2026-04-26 07:29 46.86639 7.62519 22909 ft 455 kts 48°
2026-04-26 07:29 46.88706 7.66023 22237 ft 450 kts 48°
2026-04-26 07:29 46.90763 7.69500 21639 ft 445 kts 48°
2026-04-26 07:30 46.92749 7.72845 21023 ft 441 kts 48°
2026-04-26 07:30 46.94764 7.76231 20424 ft 436 kts 48°
2026-04-26 07:30 46.96739 7.79551 19835 ft 433 kts 48°
2026-04-26 07:30 46.98705 7.82862 19237 ft 429 kts 48°
2026-04-26 07:31 47.00654 7.86145 18673 ft 425 kts 48°
2026-04-26 07:31 47.02587 7.89407 18041 ft 421 kts 48°
2026-04-26 07:31 47.04473 7.92594 17392 ft 417 kts 48°
2026-04-26 07:31 47.06371 7.95803 16736 ft 405 kts 48°
2026-04-26 07:32 47.08150 7.98818 16059 ft 377 kts 48°
2026-04-26 07:32 47.09810 8.01635 15425 ft 356 kts 48°
2026-04-26 07:32 47.11399 8.04330 14803 ft 338 kts 48°
2026-04-26 07:32 47.12877 8.06838 14227 ft 332 kts 48°
2026-04-26 07:33 47.14409 8.09441 13629 ft 337 kts 48°
2026-04-26 07:33 47.15971 8.12096 13087 ft 339 kts 48°
2026-04-26 07:33 47.17504 8.14704 12605 ft 334 kts 48°
2026-04-26 07:33 47.18955 8.17180 12097 ft 314 kts 48°
2026-04-26 07:34 47.20329 8.19528 11649 ft 297 kts 48°
2026-04-26 07:34 47.21689 8.21850 11309 ft 296 kts 48°
2026-04-26 07:34 47.23032 8.24140 10995 ft 294 kts 48°
2026-04-26 07:34 47.24413 8.26331 10745 ft 290 kts 45°
2026-04-26 07:35 47.25818 8.28445 10506 ft 286 kts 44°
2026-04-26 07:35 47.27196 8.30510 10277 ft 283 kts 44°
2026-04-26 07:35 47.28570 8.32582 10028 ft 280 kts 45°
2026-04-26 07:35 47.29917 8.34625 9756 ft 279 kts 45°
2026-04-26 07:36 47.31275 8.36686 9523 ft 279 kts 46°
2026-04-26 07:36 47.32319 8.39077 9224 ft 282 kts 72°
2026-04-26 07:36 47.32476 8.41913 8991 ft 287 kts 99°
2026-04-26 07:36 47.31715 8.44679 8746 ft 290 kts 126°
2026-04-26 07:37 47.30244 8.46637 8505 ft 292 kts 150°
2026-04-26 07:37 47.28414 8.47925 8323 ft 286 kts 155°
2026-04-26 07:37 47.26622 8.49127 8238 ft 281 kts 155°
2026-04-26 07:37 47.24855 8.50303 7821 ft 285 kts 155°
2026-04-26 07:38 47.23082 8.51505 7276 ft 275 kts 154°
2026-04-26 07:38 47.21375 8.52670 6732 ft 267 kts 154°
2026-04-26 07:38 47.19738 8.53821 6684 ft 248 kts 153°
2026-04-26 07:38 47.18445 8.55259 6734 ft 236 kts 121°
2026-04-26 07:39 47.18007 8.57528 6696 ft 234 kts 84°
2026-04-26 07:39 47.18606 8.59675 6598 ft 226 kts 51°
2026-04-26 07:39 47.19457 8.61550 6448 ft 218 kts 68°
2026-04-26 07:39 47.19999 8.63604 6402 ft 212 kts 68°
2026-04-26 07:40 47.20580 8.65581 6315 ft 210 kts 66°
2026-04-26 07:40 47.21175 8.67498 6141 ft 205 kts 65°
2026-04-26 07:40 47.22016 8.69076 5977 ft 193 kts 32°
2026-04-26 07:40 47.23338 8.69501 5885 ft 202 kts 353°
2026-04-26 07:41 47.24678 8.68960 5820 ft 198 kts 344°
2026-04-26 07:41 47.25983 8.68292 5836 ft 198 kts 340°
2026-04-26 07:41 47.27273 8.67498 5595 ft 206 kts 338°
2026-04-26 07:41 47.28581 8.66627 5310 ft 203 kts 336°
2026-04-26 07:42 47.29824 8.65770 5014 ft 190 kts 337°
2026-04-26 07:42 47.30986 8.64978 4713 ft 177 kts 337°
2026-04-26 07:42 47.32072 8.64235 4508 ft 172 kts 338°
2026-04-26 07:42 47.33174 8.63479 4264 ft 175 kts 338°
2026-04-26 07:43 47.34249 8.62742 4005 ft 167 kts 338°
2026-04-26 07:43 47.35287 8.62036 3727 ft 160 kts 339°
2026-04-26 07:43 47.36254 8.61369 3496 ft 149 kts 339°
2026-04-26 07:43 47.37205 8.60717 3303 ft 152 kts 338°
2026-04-26 07:44 47.38164 8.60059 3088 ft 150 kts 338°
2026-04-26 07:44 47.39091 8.59425 2849 ft 149 kts 338°
2026-04-26 07:44 47.40017 8.58786 2629 ft 146 kts 338°
2026-04-26 07:44 47.40929 8.58163 2389 ft 142 kts 337°
2026-04-26 07:45 47.41829 8.57545 2171 ft 142 kts 334°
2026-04-26 07:45 47.42702 8.56913 1986 ft 139 kts 334°
2026-04-26 07:45 47.43546 8.56340 1784 ft 136 kts 335°
2026-04-26 07:45 47.44432 8.55755 1630 ft 137 kts 335°
2026-04-26 07:46 47.45206 8.55209 1419 ft 126 kts 333°
2026-04-26 07:46 47.45919 8.54722 1411 ft 94 kts 337°
2026-04-26 07:46 47.46368 8.54420 1410 ft 51 kts 338°
2026-04-26 07:46 47.46700 8.54193 1401 ft 51 kts 335°
2026-04-26 07:47 47.46899 8.54056 1412 ft 25 kts 335°
2026-04-26 07:47 47.47006 8.54064 1411 ft 10 kts 40°
2026-04-26 07:47 47.47019 8.54161 1411 ft 11 kts 102°
2026-04-26 07:47 47.46982 8.54253 1412 ft 11 kts 127°
2026-04-26 07:48 47.46923 8.54325 1409 ft 12 kts 144°
2026-04-26 07:48 47.46847 8.54405 1408 ft 15 kts 146°
2026-04-26 07:48 47.46752 8.54459 1406 ft 15 kts 154°
2026-04-26 07:48 47.46653 8.54513 1403 ft 15 kts 162°
2026-04-26 07:49 47.46558 8.54581 1402 ft 15 kts 149°
2026-04-26 07:49 47.46492 8.54615 1405 ft 10 kts 158°
2026-04-26 07:49 47.46431 8.54654 1405 ft 10 kts 155°
2026-04-26 07:50 47.46314 8.54788 1409 ft 11 kts 115°
2026-04-26 07:50 47.46299 8.54901 1407 ft 11 kts 97°
2026-04-26 07:50 47.46289 8.55021 1404 ft 12 kts 97°
2026-04-26 07:50 47.46280 8.55148 1407 ft 12 kts 92°
2026-04-26 07:51 47.46272 8.55272 1402 ft 12 kts 96°
2026-04-26 07:51 47.46263 8.55385 1406 ft 11 kts 97°
2026-04-26 07:51 47.46257 8.55479 1407 ft 7 kts 94°
2026-04-26 07:51 47.46252 8.55555 1409 ft 8 kts 94°
2026-04-26 07:52 47.46248 8.55632 1408 ft 7 kts 94°
2026-04-26 07:52 47.46231 8.55677 1412 ft 4 kts 152°
2026-04-26 07:52 47.46205 8.55684 1408 ft 4 kts 173°
2026-04-26 07:52 47.46175 8.55684 1408 ft 4 kts 182°
2026-04-26 07:53 47.46168 8.55683 1405 ft 0 kts 184°